When you browse on this site, cookies collect data to enhance your experience and personalize the content and advertising you see.
Visit our Privacy Policy to learn more. By continuing to use the site, you agree to this use of cookies and data.
  • In Czech Republic
  • List of Countries
  • For 7 days
  • Water Temperature
  • Weather Map
  • Weather Widgets
  • user-avatar
    Login

    Hourly Weather Lindenberg im Allgäu

    Today, 25 August, Sunday

    Time Temperature Precipitation Wind Pressure Humidity
    00:00 +21°C° 0 mm 3 mps 761 mmHg 66%
    01:00 +21°C° 0 mm 3 mps 761 mmHg 66%
    02:00 +20°C° 0 mm 3 mps 761 mmHg 69%
    03:00 +20°C° 0 mm 3 mps 761 mmHg 71%
    04:00 +20°C° 0 mm 3 mps 761 mmHg 74%
    05:00 +20°C° 0 mm 3 mps 761 mmHg 73%
    06:00 +21°C° 0 mm 4 mps 761 mmHg 73%
    07:00 +22°C° 0 mm 4 mps 761 mmHg 72%
    08:00 +23°C° 0 mm 4 mps 761 mmHg 65%
    09:00 +26°C° 0 mm 4 mps 761 mmHg 59%
    10:00 +28°C° 0 mm 5 mps 761 mmHg 53%
    11:00 +29°C° 0 mm 4 mps 761 mmHg 50%
    12:00 +30°C° 0 mm 4 mps 761 mmHg 47%
    13:00 +32°C° 0 mm 4 mps 761 mmHg 44%
    14:00 +32°C° 0 mm 4 mps 760 mmHg 44%
    15:00 +33°C° 0 mm 4 mps 760 mmHg 44%
    16:00 +33°C° 0 mm 4 mps 760 mmHg 44%
    17:00 +30°C° 0 mm 3 mps 760 mmHg 51%
    18:00 +28°C° 0 mm 3 mps 760 mmHg 57%
    19:00 +26°C° 0 mm 3 mps 760 mmHg 64%
    20:00 +25°C° 0 mm 3 mps 760 mmHg 66%
    21:00 +25°C° 0 mm 3 mps 760 mmHg 68%
    22:00 +24°C° 0 mm 3 mps 761 mmHg 70%
    23:00 +22°C° 0 mm 3 mps 761 mmHg 72%

    Tomorrow, 26 August, Monday

    Time Temperature Precipitation Wind Pressure Humidity
    00:00 +23°C° 0 mm 2 mps 761 mmHg 73%
    01:00 +21°C° 0 mm 2 mps 761 mmHg 75%
    02:00 +21°C° 0 mm 2 mps 760 mmHg 77%
    03:00 +21°C° 0 mm 2 mps 760 mmHg 79%
    04:00 +20°C° 0 mm 2 mps 760 mmHg 81%
    05:00 +21°C° 0 mm 2 mps 760 mmHg 79%
    06:00 +22°C° 0 mm 3 mps 760 mmHg 78%
    07:00 +24°C° 0 mm 3 mps 760 mmHg 76%
    08:00 +25°C° 0 mm 3 mps 760 mmHg 70%
    09:00 +27°C° 0 mm 3 mps 760 mmHg 64%
    10:00 +29°C° 0 mm 3 mps 760 mmHg 58%
    11:00 +30°C° 0 mm 3 mps 760 mmHg 53%
    12:00 +31°C° 0 mm 3 mps 760 mmHg 48%
    13:00 +33°C° 0 mm 3 mps 760 mmHg 44%
    14:00 +33°C° 0 mm 3 mps 759 mmHg 43%
    15:00 +33°C° 0 mm 3 mps 759 mmHg 43%
    16:00 +34°C° 0 mm 3 mps 759 mmHg 42%
    17:00 +31°C° 0 mm 3 mps 759 mmHg 49%
    18:00 +29°C° 0 mm 3 mps 759 mmHg 55%
    19:00 +27°C° 0 mm 3 mps 758 mmHg 61%
    20:00 +26°C° 0.1 mm 3 mps 759 mmHg 64%
    21:00 +26°C° 0.1 mm 3 mps 759 mmHg 67%
    22:00 +25°C° 0.1 mm 3 mps 759 mmHg 70%
    23:00 +24°C° 0 mm 2 mps 759 mmHg 73%

    Day after tomorrow, 27 August, Tuesday

    Time Temperature Precipitation Wind Pressure Humidity
    00:00 +24°C° 0 mm 2 mps 759 mmHg 75%
    01:00 +23°C° 0 mm 2 mps 759 mmHg 77%
    02:00 +23°C° 0 mm 2 mps 759 mmHg 79%
    03:00 +21°C° 0 mm 2 mps 759 mmHg 80%
    04:00 +21°C° 0 mm 2 mps 758 mmHg 81%
    05:00 +23°C° 0 mm 2 mps 759 mmHg 78%
    06:00 +24°C° 0 mm 2 mps 759 mmHg 76%
    07:00 +24°C° 0 mm 3 mps 759 mmHg 73%
    08:00 +26°C° 0 mm 3 mps 759 mmHg 66%
    09:00 +28°C° 0 mm 3 mps 759 mmHg 59%
    10:00 +30°C° 0 mm 3 mps 759 mmHg 53%
    11:00 +33°C° 0 mm 3 mps 758 mmHg 48%
    12:00 +34°C° 0 mm 3 mps 758 mmHg 43%
    13:00 +35°C° 0 mm 3 mps 758 mmHg 38%
    14:00 +35°C° 0 mm 3 mps 758 mmHg 38%
    15:00 +35°C° 0 mm 3 mps 757 mmHg 38%
    16:00 +35°C° 0 mm 3 mps 757 mmHg 37%
    17:00 +33°C° 0.1 mm 3 mps 757 mmHg 43%
    18:00 +30°C° 0.1 mm 3 mps 757 mmHg 49%
    19:00 +28°C° 0.1 mm 2 mps 757 mmHg 56%
    20:00 +27°C° 0.5 mm 2 mps 757 mmHg 61%
    21:00 +26°C° 0.5 mm 3 mps 757 mmHg 67%
    22:00 +25°C° 0.5 mm 3 mps 757 mmHg 73%
    23:00 +25°C° 0.1 mm 3 mps 757 mmHg 76%

    28 August, Wednesday

    Time Temperature Precipitation Wind Pressure Humidity
    00:00 +24°C° 0.1 mm 2 mps 757 mmHg 78%
    01:00 +24°C° 0.1 mm 2 mps 757 mmHg 80%
    02:00 +24°C° 0 mm 2 mps 757 mmHg 81%
    03:00 +23°C° 0 mm 2 mps 757 mmHg 82%
    04:00 +23°C° 0 mm 2 mps 757 mmHg 83%
    05:00 +24°C° 0 mm 2 mps 757 mmHg 80%
    06:00 +24°C° 0 mm 2 mps 757 mmHg 77%
    07:00 +25°C° 0 mm 2 mps 756 mmHg 75%
    08:00 +27°C° 0 mm 2 mps 757 mmHg 67%
    09:00 +29°C° 0 mm 2 mps 757 mmHg 59%
    10:00 +31°C° 0 mm 2 mps 757 mmHg 51%
    11:00 +32°C° 0 mm 2 mps 756 mmHg 47%
    12:00 +34°C° 0 mm 2 mps 756 mmHg 43%
    13:00 +35°C° 0 mm 2 mps 756 mmHg 40%
    14:00 +35°C° 0 mm 2 mps 756 mmHg 39%
    15:00 +35°C° 0 mm 2 mps 755 mmHg 39%
    16:00 +35°C° 0 mm 2 mps 755 mmHg 39%
    17:00 +32°C° 0 mm 2 mps 755 mmHg 44%
    18:00 +30°C° 0 mm 2 mps 755 mmHg 49%
    19:00 +29°C° 0 mm 2 mps 755 mmHg 55%
    20:00 +28°C° 0 mm 1 mps 755 mmHg 56%
    21:00 +27°C° 0 mm 1 mps 755 mmHg 58%
    22:00 +26°C° 0 mm 1 mps 755 mmHg 59%
    23:00 +25°C° 0 mm 1 mps 755 mmHg 60%

    29 August, Thursday

    Time Temperature Precipitation Wind Pressure Humidity
    00:00 +25°C° 0 mm 1 mps 755 mmHg 60%
    01:00 +24°C° 0 mm 1 mps 755 mmHg 60%
    02:00 +24°C° 0 mm 1 mps 755 mmHg 60%
    03:00 +24°C° 0 mm 1 mps 755 mmHg 61%
    04:00 +24°C° 0 mm 1 mps 755 mmHg 62%
    05:00 +24°C° 0 mm 1 mps 755 mmHg 62%
    06:00 +24°C° 0 mm 1 mps 755 mmHg 62%
    07:00 +25°C° 0 mm 1 mps 755 mmHg 62%
    08:00 +27°C° 0 mm 1 mps 755 mmHg 56%
    09:00 +29°C° 0 mm 2 mps 755 mmHg 50%
    10:00 +31°C° 0 mm 2 mps 756 mmHg 45%
    11:00 +32°C° 0 mm 2 mps 756 mmHg 42%
    12:00 +34°C° 0 mm 2 mps 755 mmHg 39%
    13:00 +35°C° 0 mm 2 mps 755 mmHg 36%
    14:00 +34°C° 0 mm 2 mps 755 mmHg 36%
    15:00 +34°C° 0 mm 2 mps 755 mmHg 36%
    16:00 +34°C° 0 mm 2 mps 755 mmHg 36%
    17:00 +31°C° 0 mm 2 mps 756 mmHg 44%
    18:00 +29°C° 0 mm 2 mps 756 mmHg 52%
    19:00 +27°C° 0 mm 2 mps 756 mmHg 59%
    20:00 +26°C° 0.6 mm 3 mps 756 mmHg 68%
    21:00 +24°C° 0.6 mm 3 mps 757 mmHg 76%
    22:00 +22°C° 0.6 mm 3 mps 757 mmHg 85%
    23:00 +21°C° 0.6 mm 3 mps 758 mmHg 86%

    30 August, Friday

    Time Temperature Precipitation Wind Pressure Humidity
    00:00 +21°C° 0.6 mm 2 mps 758 mmHg 88%
    01:00 +20°C° 0.6 mm 2 mps 758 mmHg 89%
    02:00 +20°C° 0.1 mm 2 mps 758 mmHg 91%
    03:00 +19°C° 0.1 mm 2 mps 759 mmHg 92%
    04:00 +20°C° 0.1 mm 1 mps 759 mmHg 94%
    05:00 +19°C° 0 mm 2 mps 759 mmHg 92%
    06:00 +20°C° 0 mm 2 mps 760 mmHg 90%
    07:00 +20°C° 0 mm 2 mps 760 mmHg 88%
    08:00 +21°C° 0.1 mm 3 mps 760 mmHg 83%
    09:00 +22°C° 0.1 mm 3 mps 761 mmHg 79%
    10:00 +24°C° 0.1 mm 3 mps 761 mmHg 74%
    11:00 +25°C° 0.1 mm 3 mps 761 mmHg 68%
    12:00 +26°C° 0.1 mm 3 mps 761 mmHg 61%
    13:00 +27°C° 0.1 mm 3 mps 761 mmHg 55%
    14:00 +27°C° 0 mm 3 mps 761 mmHg 54%
    15:00 +27°C° 0 mm 3 mps 761 mmHg 52%
    16:00 +27°C° 0 mm 3 mps 761 mmHg 50%
    17:00 +25°C° 0 mm 2 mps 761 mmHg 55%
    18:00 +24°C° 0 mm 2 mps 761 mmHg 59%
    19:00 +23°C° 0 mm 2 mps 761 mmHg 64%
    20:00 +21°C° 0 mm 2 mps 761 mmHg 68%
    21:00 +20°C° 0 mm 2 mps 762 mmHg 72%
    22:00 +19°C° 0 mm 2 mps 762 mmHg 75%
    23:00 +18°C° 0 mm 2 mps 762 mmHg 78%
    Show more